Miscellaneous Local Product
Issued by NWS North Platte, NE

Home | Current Version | Previous Version | Graphics & Text | Print | Product List | Glossary On
Versions: 1 2 3 4 5 6 7 8 9 10 11 12 13 14 15 16 17 18 19 20 21 22 23 24 25 26 27 28 29 30 31 32 33 34 35 36 37 38 39 40 41 42 43 44 45 46 47 48 49 50
000
AXUS43 KLBF 211210
MISLBF


WESTERN AND NORTH CENTRAL NEBRASKA HOURLY WEATHER ROUNDUP
NATIONAL WEATHER SERVICE NORTH PLATTE NE
700 AM CDT TUE OCT 21 2014

***STATIONS NOT REPORTING VARIABLES SUCH AS SKY/WEATHER OR
PRESSURE ARE PROVIDED BY THE NEBRASKA DEPARTMENT OF
ROADS...RAWS...AND APRS NETWORKS...AND ARE NOT UNDER
NATIONAL WEATHER SERVICE QUALITY CONTROL***

...OBSERVATIONS IN AND NEAR THE EASTERN PANHANDLE OF NEBRASKA...

CITY           SKY/WX    TMP DP  RH WIND       PRES   REMARKS
PINE RIDGE     CLEAR     55  42  61 SW12      29.91S
CHADRON        CLEAR     48  41  76 S6        29.90S
ALLIANCE       CLEAR     42  39  89 SE3       29.97S
SIDNEY         CLEAR     44  41  89 S8        30.00F
WHITECLAY        N/A     54  39  58 SE12        N/A
RUSHVILLE        N/A     42  38  86 NW8         N/A
CRESCENT LAKE    N/A     50  44  80 S7          N/A
LISCO            N/A     59  46  63 E6          N/A
BIG SPRINGS      N/A     52  43  71 CALM        N/A
LEWELLEN         N/A     51  44  76 CALM        N/A
$$

...OBSERVATIONS IN NORTH CENTRAL NEBRASKA...

CITY           SKY/WX    TMP DP  RH WIND       PRES   REMARKS
VALENTINE      CLEAR     50  39  66 S12       29.96S
THEDFORD       CLEAR     49  40  70 S6        30.02S
AINSWORTH      CLEAR     52  40  63 S14       29.99S
O`NEILL        CLEAR     46  42  84 SE7       30.03R
ORD            CLEAR     36  35  96 CALM      30.04S
BROKEN BOW     CLEAR     40  36  86 CALM      30.04S
BROWNLEE         N/A     52  39  61 S10         N/A
SPRINGVIEW       N/A     42  38  87 CALM        N/A
BREWSTER         N/A     41  37  87 CALM        N/A
ROSE             N/A     48  43  81 E7          N/A
NEWPORT          N/A     49  42  75 S8          N/A
SARGENT          N/A     41  38  91 CALM        N/A
COMSTOCK         N/A     48  42  80 S6          N/A
CHAMBERS         N/A     48  40  75 MISG        N/A
$$

...OBSERVATIONS IN SOUTHWEST NEBRASKA AND FAR NORTHEAST COLORADO...

CITY           SKY/WX    TMP DP  RH WIND       PRES   REMARKS
WRAY           FAIR      53  49  87 S5        30.02F
HOLYOKE        FAIR      50  45  81 S8        30.01F
IMPERIAL       CLEAR     53  46  77 S6        30.03S
OGALLALA       CLEAR     42  37  85 CALM      30.02S
NORTH PLATTE   CLEAR     45  38  76 CALM      30.04S
MCCOOK         CLEAR     43  37  79 CALM      30.06S
LEXINGTON      CLEAR     42  39  88 SE5       30.06S
PAXTON           N/A     47  39  74 CALM        N/A
SUTHERLAND       N/A     41  38  89 S7          N/A
BRADY            N/A     47  39  75 CALM        N/A
GOTHENBURG       N/A     54  39  57 CALM        N/A
CALLAWAY         N/A     46  40  81 S10         N/A
$$

...SOME WEATHER OBSERVATIONS FROM AROUND THE REGION...

CITY           SKY/WX    TMP DP  RH WIND       PRES   REMARKS
DENVER         CLEAR     49  36  61 SW9       30.03S
LARAMIE        PTCLDY    36  30  79 S8        30.12S WCI  30
CHEYENNE       CLEAR     47  34  60 W12       30.05S
SCOTTSBLUFF    CLEAR     46  41  82 E8        29.96S
RAPID CITY     CLEAR     49  38  65 SE3       29.84S
PIERRE         CLEAR     52  40  63 SE13      29.87S
WINNER         FAIR      60  39  45 S22       29.92S
SIOUX FALLS    CLEAR     41  36  82 SE3       30.09S
OMAHA          CLEAR     40  38  93 CALM      30.12R
GRAND ISLAND   CLEAR     47  41  80 S3        30.08R
KANSAS CITY    CLEAR     46  43  89 NE3       30.11S
WICHITA        MOCLDY    55  50  83 E6        30.08S
HAYS           CLEAR     43  36  75 CALM      30.08S
LIBERAL        CLOUDY    54  48  82 CALM      30.08S VSB 1/4
GOODLAND       PTCLDY    49  47  93 S12       30.07S
$$



USA.gov is the U.S. government's official web portal to all federal, state and local government web resources and services.